This demonstration page uses our WeatherBlox Daily Observations layout. Learn more.

Left ArrowRight Arrow

41.86663, -103.66717

Hourly Observations for October 1, 2020

Temp ( °F °C ) Dew Point ( °F °C ) Humidity (%) Winds ( mph kmh ) Pressure ( in mb ) Visibility ( mi km ) Precip ( " mm )
12:53 am 00:53 Cloudy 50 10 26 -3.3 39 39 WNW 7 11 30.34 1028 10 16.0934 0 0
1:53 am 01:53 Cloudy 47 8.3 26 -3.3 44 44 WNW 8 13 30.36 1028 10 16.0934 0 0
2:53 am 02:53 Clear 42 5.6 26 -3.3 53 53 WNW 8 13 30.37 1029 10 16.0934 0 0
3:53 am 03:53 Mostly Clear 40 4.4 27 -2.8 60 60 WNW 7 11 30.38 1029 10 16.0934 0 0
4:53 am 04:53 Mostly Clear 36 2.2 27 -2.8 70 70 NNW 7 11 30.41 1030 10 16.0934 0 0
5:53 am 05:53 Clear 34 1.1 27 -2.8 76 76 WNW 5 7 30.44 1031 10 16.0934 0 0
6:53 am 06:53 Sunny 34 1.1 27 -2.8 76 76 NW 6 9 30.46 1031 10 16.0934 0 0
7:53 am 07:53 Sunny 40 4.4 28 -2.2 63 63 W 3 6 30.46 1032 10 16.0934 0 0
8:53 am 08:53 Sunny 46 7.8 27 -2.8 47 47 W 5 7 30.45 1031 10 16.0934 0 0
9:53 am 09:53 Sunny 51 10.6 28 -2.2 41 41 WSW 3 6 30.44 1031 10 16.0934 0 0
10:53 am 10:53 Sunny 58 14.4 26 -3.3 29 29 NW 6 9 30.42 1030 10 16.0934 0 0
11:53 am 11:53 Sunny 61 16.1 25 -3.9 25 25 WNW 12 19 30.4 1030 10 16.0934 0 0
12:53 pm 12:53 Sunny 63 17.2 25 -3.9 24 24 VRB 5 7 30.35 1028 10 16.0934 0 0
1:53 pm 13:53 Sunny 66 18.9 27 -2.8 23 23 W 10 17 30.29 1026 10 16.0934 0 0
2:53 pm 14:53 Sunny 66 18.9 28 -2.2 24 24 WNW 10 17 30.28 1025 10 16.0934 0 0
3:53 pm 15:53 Sunny 67 19.4 28 -2.2 23 23 W 10 17 30.25 1024 10 16.0934 0 0
4:53 pm 16:53 Sunny 66 18.9 28 -2.2 24 24 WNW 8 13 30.24 1024 10 16.0934 0 0
5:53 pm 17:53 Sunny 64 17.8 28 -2.2 26 26 W 3 6 30.25 1024 10 16.0934 0 0
6:53 pm 18:53 Clear 58 14.4 31 -0.6 36 36 S 5 7 30.25 1025 10 16.0934 0 0
7:53 pm 19:53 Clear 54 12.2 31 -0.6 42 42 Calm 30.25 1025 10 16.0934 0 0
8:53 pm 20:53 Clear 51 10.6 27 -2.8 39 39 E 6 9 30.25 1024 10 16.0934 0 0
9:53 pm 21:53 Clear 50 10 26 -3.3 39 39 ESE 7 11 30.23 1024 10 16.0934 0 0
10:53 pm 22:53 Clear 51 10.6 25 -3.9 36 36 E 9 15 30.2 1023 10 16.0934 0 0
11:53 pm 23:53 Clear 49 9.4 24 -4.4 38 38 E 8 13 30.18 1022 10 16.0934 0 0

Powered by AerisWeather